Вернуться в каталог

ORBCOMM FM 39

АктивенСвязьLEO
NORAD 33063·PAYLOAD·🇺🇸 United States

Запущен Jun 19, 2008 с Kapustin Yar

Loading…

Ближайшие Пролёты (ближайшие 24 часа)

TLE

СвежийSource: Space-Track

Эпоха: Sep 14, 2026, 16:45 UTC

1 33063U 08031D   26257.69808713  .00000895  00000-0  14079-3 0  9997
2 33063  48.4417 351.7268 0006250 157.1682 202.9512 14.81321451981144

Отслеживайте ORBCOMM FM 39 в реальном времени с AllMySat

Download on the App Store